Time,TemperatureF,DewpointF,PressureIn,WindDirection,WindDirectionDegrees,WindSpeedMPH,WindSpeedGustMPH,Humidity,HourlyPrecipIn,Conditions,Clouds,dailyrainin,SoftwareType,DateUTC
2013-02-14 00:04:00,45.2,0.0,30.53,East,85,0.0,0.0,0,0.00,,OVC060,0.00,VWS V13.01,2013-02-14 08:04:00,
2013-02-14 00:09:00,45.2,0.0,30.53,East,85,0.0,1.0,0,0.00,,OVC060,0.00,VWS V13.01,2013-02-14 08:09:00,
2013-02-14 00:14:00,45.1,0.0,30.53,East,85,0.0,1.0,0,0.00,,OVC060,0.00,VWS V13.01,2013-02-14 08:14:00,
2013-02-14 00:19:00,45.1,0.0,30.53,East,85,0.0,0.0,0,0.00,,OVC060,0.00,VWS V13.01,2013-02-14 08:19:00,
2013-02-14 00:24:00,45.1,0.0,30.53,East,85,0.0,0.0,0,0.00,,OVC060,0.00,VWS V13.01,2013-02-14 08:24:00,
2013-02-14 00:29:00,45.0,0.0,30.53,East,85,0.0,0.0,0,0.00,,OVC060,0.00,VWS V13.01,2013-02-14 08:29:00,
2013-02-14 00:34:00,45.0,0.0,30.53,East,85,0.0,0.0,0,0.00,,OVC060,0.00,VWS V13.01,2013-02-14 08:34:00,
2013-02-14 00:39:00,44.8,0.0,30.53,East,85,0.0,0.0,0,0.00,,OVC055,0.00,VWS V13.01,2013-02-14 08:39:00,
2013-02-14 00:44:00,44.7,0.0,30.53,East,85,0.0,0.0,0,0.00,,OVC055,0.00,VWS V13.01,2013-02-14 08:44:00,
2013-02-14 00:49:00,44.6,0.0,30.53,East,85,0.0,0.0,0,0.00,,OVC055,0.00,VWS V13.01,2013-02-14 08:49:00,
2013-02-14 00:54:00,44.4,0.0,30.53,East,85,0.0,0.0,0,0.00,,OVC055,0.00,VWS V13.01,2013-02-14 08:54:00,
2013-02-14 01:00:00,44.2,0.0,30.53,East,85,0.0,0.0,0,0.00,,OVC055,0.00,VWS V13.01,2013-02-14 09:00:00,
2013-02-14 01:05:00,44.1,0.0,30.53,East,85,0.0,0.0,0,0.00,,OVC055,0.00,VWS V13.01,2013-02-14 09:05:00,
2013-02-14 01:10:00,44.0,0.0,30.53,East,85,0.0,0.0,0,0.00,,OVC055,0.00,VWS V13.01,2013-02-14 09:10:00,
2013-02-14 01:15:00,43.9,0.0,30.53,East,85,0.0,0.0,0,0.00,,OVC055,0.00,VWS V13.01,2013-02-14 09:15:00,
2013-02-14 01:20:00,43.9,0.0,30.53,East,85,0.0,0.0,0,0.00,,OVC055,0.00,VWS V13.01,2013-02-14 09:20:00,
2013-02-14 01:25:00,43.9,0.0,30.53,East,85,0.0,0.0,0,0.00,,OVC055,0.00,VWS V13.01,2013-02-14 09:25:00,
2013-02-14 01:30:00,43.8,0.0,30.53,East,85,0.0,0.0,0,0.00,,OVC055,0.00,VWS V13.01,2013-02-14 09:30:00,
2013-02-14 01:35:00,43.9,0.0,30.53,East,85,0.0,0.0,0,0.00,,OVC055,0.00,VWS V13.01,2013-02-14 09:35:00,
2013-02-14 01:40:00,43.9,0.0,30.53,East,80,1.0,2.0,0,0.00,,OVC050,0.00,VWS V13.01,2013-02-14 09:40:00,
2013-02-14 01:46:00,44.0,0.0,30.53,NE,46,1.0,3.0,0,0.00,,OVC050,0.00,VWS V13.01,2013-02-14 09:46:00,
2013-02-14 01:51:00,44.0,0.0,30.53,NE,46,0.0,3.0,0,0.00,,OVC050,0.00,VWS V13.01,2013-02-14 09:51:00,
2013-02-14 01:56:00,44.0,0.0,30.53,NE,46,1.0,3.0,0,0.00,,OVC050,0.00,VWS V13.01,2013-02-14 09:56:00,
2013-02-14 02:01:00,44.0,0.0,30.53,NE,46,0.0,1.0,0,0.00,,OVC050,0.00,VWS V13.01,2013-02-14 10:01:00,
2013-02-14 02:06:00,43.9,0.0,30.53,NE,46,0.0,1.0,0,0.00,,OVC050,0.00,VWS V13.01,2013-02-14 10:06:00,
2013-02-14 02:11:00,43.9,0.0,30.53,NE,46,0.0,1.0,0,0.00,,OVC050,0.00,VWS V13.01,2013-02-14 10:11:00,
2013-02-14 02:16:00,43.9,0.0,30.53,NE,46,0.0,0.0,0,0.00,,OVC050,0.00,VWS V13.01,2013-02-14 10:16:00,
2013-02-14 02:21:00,43.8,0.0,30.53,NE,46,0.0,0.0,0,0.00,,OVC050,0.00,VWS V13.01,2013-02-14 10:21:00,
2013-02-14 02:26:00,43.8,0.0,30.53,NE,46,1.0,2.0,0,0.00,,OVC050,0.00,VWS V13.01,2013-02-14 10:26:00,
2013-02-14 02:31:00,43.7,0.0,30.53,NE,46,0.0,2.0,0,0.00,,OVC050,0.00,VWS V13.01,2013-02-14 10:31:00,
2013-02-14 02:37:00,43.7,0.0,30.53,NE,46,0.0,2.0,0,0.00,,OVC050,0.00,VWS V13.01,2013-02-14 10:37:00,
2013-02-14 02:41:00,43.6,0.0,30.53,NE,46,0.0,2.0,0,0.00,,BKN050,0.00,VWS V13.01,2013-02-14 10:41:00,
2013-02-14 02:47:00,43.5,0.0,30.53,NE,46,0.0,1.0,0,0.00,,BKN050,0.00,VWS V13.01,2013-02-14 10:47:00,
2013-02-14 02:52:00,43.4,0.0,30.53,NE,46,0.0,1.0,0,0.00,,BKN050,0.00,VWS V13.01,2013-02-14 10:52:00,
2013-02-14 02:57:00,43.4,0.0,30.53,NE,46,1.0,2.0,0,0.00,,BKN050,0.00,VWS V13.01,2013-02-14 10:57:00,
2013-02-14 03:02:00,43.3,0.0,30.53,NE,46,0.0,2.0,0,0.00,,BKN050,0.00,VWS V13.01,2013-02-14 11:02:00,
2013-02-14 03:07:00,43.3,0.0,30.53,NE,44,1.0,2.0,0,0.00,,BKN050,0.00,VWS V13.01,2013-02-14 11:07:00,
2013-02-14 03:12:00,43.2,0.0,30.54,NE,55,1.0,3.0,0,0.00,,BKN050,0.00,VWS V13.01,2013-02-14 11:12:00,
2013-02-14 03:17:00,43.2,0.0,30.54,NE,54,1.0,2.0,0,0.00,,BKN050,0.00,VWS V13.01,2013-02-14 11:17:00,
2013-02-14 03:22:00,43.1,0.0,30.54,NE,53,0.0,2.0,0,0.00,,BKN050,0.00,VWS V13.01,2013-02-14 11:22:00,
2013-02-14 03:27:00,43.1,0.0,30.54,NE,41,0.0,3.0,0,0.00,,BKN050,0.00,VWS V13.01,2013-02-14 11:27:00,
2013-02-14 03:32:00,43.0,0.0,30.54,NE,41,0.0,3.0,0,0.00,,BKN050,0.00,VWS V13.01,2013-02-14 11:32:00,
2013-02-14 03:37:00,42.9,0.0,30.54,NE,41,0.0,3.0,0,0.00,,BKN050,0.00,VWS V13.01,2013-02-14 11:37:00,
2013-02-14 03:42:00,42.8,0.0,30.54,NE,44,1.0,3.0,0,0.00,,,0.00,VWS V13.01,2013-02-14 11:42:00,
2013-02-14 03:47:00,42.7,0.0,30.54,NE,44,0.0,2.0,0,0.00,,,0.00,VWS V13.01,2013-02-14 11:47:00,
2013-02-14 03:52:00,42.7,0.0,30.54,NE,44,0.0,2.0,0,0.00,,,0.00,VWS V13.01,2013-02-14 11:52:00,
2013-02-14 03:57:00,42.7,0.0,30.54,NE,44,0.0,2.0,0,0.00,,,0.00,VWS V13.01,2013-02-14 11:57:00,
2013-02-14 04:03:00,42.7,0.0,30.54,NE,44,0.0,0.0,0,0.00,,,0.00,VWS V13.01,2013-02-14 12:03:00,
2013-02-14 04:08:00,42.7,0.0,30.54,NE,44,0.0,1.0,0,0.00,,,0.00,VWS V13.01,2013-02-14 12:08:00,
2013-02-14 04:13:00,42.6,0.0,30.54,NE,44,0.0,1.0,0,0.00,,,0.00,VWS V13.01,2013-02-14 12:13:00,
2013-02-14 04:18:00,42.6,0.0,30.54,NE,44,0.0,0.0,0,0.00,,,0.00,VWS V13.01,2013-02-14 12:18:00,
2013-02-14 04:23:00,42.5,0.0,30.54,NE,44,0.0,0.0,0,0.00,,,0.00,VWS V13.01,2013-02-14 12:23:00,
2013-02-14 04:28:00,42.5,0.0,30.54,NE,44,0.0,0.0,0,0.00,,,0.00,VWS V13.01,2013-02-14 12:28:00,
2013-02-14 04:33:00,42.4,0.0,30.53,NE,44,0.0,0.0,0,0.00,,,0.00,VWS V13.01,2013-02-14 12:33:00,
2013-02-14 04:38:00,42.3,0.0,30.54,NE,44,0.0,1.0,0,0.00,,,0.00,VWS V13.01,2013-02-14 12:38:00,
2013-02-14 04:44:00,42.2,0.0,30.54,NE,44,1.0,2.0,0,0.00,,,0.00,VWS V13.01,2013-02-14 12:44:00,
2013-02-14 04:49:00,42.2,0.0,30.54,NE,44,0.0,1.0,0,0.00,,,0.00,VWS V13.01,2013-02-14 12:49:00,
2013-02-14 04:54:00,42.2,0.0,30.54,NE,44,0.0,1.0,0,0.00,,,0.00,VWS V13.01,2013-02-14 12:54:00,
2013-02-14 04:59:00,42.1,0.0,30.54,NE,44,1.0,1.0,0,0.00,,,0.00,VWS V13.01,2013-02-14 12:59:00,
2013-02-14 05:04:00,42.0,0.0,30.54,NE,44,2.0,2.0,0,0.00,,,0.00,VWS V13.01,2013-02-14 13:04:00,
2013-02-14 05:09:00,42.0,0.0,30.54,NE,36,1.0,3.0,0,0.00,,,0.00,VWS V13.01,2013-02-14 13:09:00,
2013-02-14 05:14:00,41.9,0.0,30.54,NE,46,1.0,1.0,0,0.00,,,0.00,VWS V13.01,2013-02-14 13:14:00,
2013-02-14 05:19:00,41.8,0.0,30.55,NE,46,2.0,2.0,0,0.00,,,0.00,VWS V13.01,2013-02-14 13:19:00,
2013-02-14 05:24:00,41.8,0.0,30.55,NE,46,0.0,2.0,0,0.00,,,0.00,VWS V13.01,2013-02-14 13:24:00,
2013-02-14 05:29:00,41.7,0.0,30.55,NE,46,0.0,1.0,0,0.00,,,0.00,VWS V13.01,2013-02-14 13:29:00,
2013-02-14 05:35:00,41.7,0.0,30.55,NE,46,0.0,1.0,0,0.00,,,0.00,VWS V13.01,2013-02-14 13:35:00,
2013-02-14 05:40:00,41.7,0.0,30.55,NE,46,0.0,1.0,0,0.00,,OVC009,0.00,VWS V13.01,2013-02-14 13:40:00,
2013-02-14 05:45:00,41.6,0.0,30.55,NE,46,0.0,0.0,0,0.00,,OVC009,0.00,VWS V13.01,2013-02-14 13:45:00,
2013-02-14 05:50:00,41.6,0.0,30.55,NE,46,0.0,0.0,0,0.00,,BKN045,0.00,VWS V13.01,2013-02-14 13:50:00,
2013-02-14 05:55:00,41.6,0.0,30.55,NNE,30,0.0,2.0,0,0.00,,BKN045,0.00,VWS V13.01,2013-02-14 13:55:00,
2013-02-14 06:00:00,41.5,0.0,30.55,NNE,30,0.0,0.0,0,0.00,,BKN045,0.00,VWS V13.01,2013-02-14 14:00:00,
2013-02-14 06:05:00,41.5,0.0,30.55,NNE,30,0.0,1.0,0,0.00,,BKN045,0.00,VWS V13.01,2013-02-14 14:05:00,
2013-02-14 06:10:00,41.4,0.0,30.55,NNE,30,0.0,1.0,0,0.00,,BKN045,0.00,VWS V13.01,2013-02-14 14:10:00,
2013-02-14 06:15:00,41.3,0.0,30.55,NNE,30,0.0,0.0,0,0.00,,BKN045,0.00,VWS V13.01,2013-02-14 14:15:00,
2013-02-14 06:20:00,41.3,0.0,30.55,NNE,30,0.0,0.0,0,0.00,,BKN045,0.00,VWS V13.01,2013-02-14 14:20:00,
2013-02-14 06:25:00,41.2,0.0,30.55,NNE,30,0.0,0.0,0,0.00,,BKN045,0.00,VWS V13.01,2013-02-14 14:25:00,
2013-02-14 06:31:00,41.1,0.0,30.55,NNE,30,0.0,0.0,0,0.00,,BKN045,0.00,VWS V13.01,2013-02-14 14:31:00,
2013-02-14 06:36:00,41.0,0.0,30.55,NNE,30,0.0,0.0,0,0.00,,BKN045,0.00,VWS V13.01,2013-02-14 14:36:00,
2013-02-14 06:41:00,41.0,0.0,30.55,NNE,30,1.0,1.0,0,0.00,,SCT045,0.00,VWS V13.01,2013-02-14 14:41:00,
2013-02-14 06:46:00,40.9,0.0,30.55,NNE,30,0.0,0.0,0,0.00,,SCT045,0.00,VWS V13.01,2013-02-14 14:46:00,
2013-02-14 06:51:00,40.8,0.0,30.55,NNE,32,2.0,3.0,0,0.00,,BKN045,0.00,VWS V13.01,2013-02-14 14:51:00,
2013-02-14 06:56:00,40.6,0.0,30.55,NE,52,1.0,3.0,0,0.00,,BKN045,0.00,VWS V13.01,2013-02-14 14:56:00,
2013-02-14 07:01:00,40.5,0.0,30.55,NE,49,1.0,3.0,0,0.00,,BKN045,0.00,VWS V13.01,2013-02-14 15:01:00,
2013-02-14 07:06:00,40.4,0.0,30.55,NE,48,4.0,4.0,0,0.00,,BKN045,0.00,VWS V13.01,2013-02-14 15:06:00,
2013-02-14 07:11:00,40.2,0.0,30.55,NE,38,2.0,4.0,0,0.00,,BKN045,0.00,VWS V13.01,2013-02-14 15:11:00,
2013-02-14 07:16:00,40.2,0.0,30.56,NE,38,1.0,3.0,0,0.00,,BKN045,0.00,VWS V13.01,2013-02-14 15:16:00,
2013-02-14 07:21:00,40.1,0.0,30.56,NE,38,0.0,3.0,0,0.00,,BKN045,0.00,VWS V13.01,2013-02-14 15:21:00,
2013-02-14 07:26:00,40.1,0.0,30.56,NE,38,1.0,3.0,0,0.00,,BKN045,0.00,VWS V13.01,2013-02-14 15:26:00,
2013-02-14 07:31:00,40.0,0.0,30.56,NE,38,0.0,0.0,0,0.00,,BKN045,0.00,VWS V13.01,2013-02-14 15:31:00,
2013-02-14 07:36:00,40.0,0.0,30.56,NE,38,0.0,0.0,0,0.00,,BKN045,0.00,VWS V13.01,2013-02-14 15:36:00,
2013-02-14 07:42:00,39.9,0.0,30.56,NE,38,0.0,0.0,0,0.00,,,0.00,VWS V13.01,2013-02-14 15:42:00,
2013-02-14 07:47:00,39.9,0.0,30.57,NE,38,0.0,0.0,0,0.00,,,0.00,VWS V13.01,2013-02-14 15:47:00,
2013-02-14 07:52:00,39.9,0.0,30.57,NE,38,0.0,0.0,0,0.00,,,0.00,VWS V13.01,2013-02-14 15:52:00,
2013-02-14 07:57:00,39.9,0.0,30.57,NE,38,0.0,0.0,0,0.00,,,0.00,VWS V13.01,2013-02-14 15:57:00,
2013-02-14 08:02:00,39.9,0.0,30.57,NE,38,0.0,0.0,0,0.00,,,0.00,VWS V13.01,2013-02-14 16:02:00,
2013-02-14 08:07:00,39.8,0.0,30.57,NE,38,0.0,0.0,0,0.00,,,0.00,VWS V13.01,2013-02-14 16:07:00,
2013-02-14 08:12:00,39.9,0.0,30.57,NE,38,1.0,1.0,0,0.00,,,0.00,VWS V13.01,2013-02-14 16:12:00,
2013-02-14 08:17:00,39.9,0.0,30.57,NE,38,0.0,1.0,0,0.00,,,0.00,VWS V13.01,2013-02-14 16:17:00,
2013-02-14 08:22:00,39.9,0.0,30.57,NE,38,0.0,1.0,0,0.00,,,0.00,VWS V13.01,2013-02-14 16:22:00,
2013-02-14 08:27:00,40.0,0.0,30.57,NE,38,0.0,1.0,0,0.00,,,0.00,VWS V13.01,2013-02-14 16:27:00,
2013-02-14 08:32:00,40.0,0.0,30.57,NE,38,0.0,0.0,0,0.00,,,0.00,VWS V13.01,2013-02-14 16:32:00,
2013-02-14 08:37:00,40.1,0.0,30.57,NE,38,0.0,0.0,0,0.00,,,0.00,VWS V13.01,2013-02-14 16:37:00,
2013-02-14 08:43:00,40.2,0.0,30.57,NE,38,0.0,0.0,0,0.00,,OVC007,0.00,VWS V13.01,2013-02-14 16:43:00,
2013-02-14 08:48:00,40.2,0.0,30.57,NE,38,1.0,2.0,0,0.00,,OVC007,0.00,VWS V13.01,2013-02-14 16:48:00,
2013-02-14 08:53:00,40.2,0.0,30.57,NE,37,0.0,2.0,0,0.00,,OVC007,0.00,VWS V13.01,2013-02-14 16:53:00,
2013-02-14 08:58:00,40.2,0.0,30.57,NE,38,1.0,2.0,0,0.00,,OVC007,0.00,VWS V13.01,2013-02-14 16:58:00,
2013-02-14 09:03:00,40.3,0.0,30.57,NE,38,0.0,2.0,0,0.00,,OVC007,0.00,VWS V13.01,2013-02-14 17:03:00,
2013-02-14 09:08:00,40.4,0.0,30.57,NE,38,1.0,2.0,0,0.00,,OVC007,0.00,VWS V13.01,2013-02-14 17:08:00,
2013-02-14 09:13:00,40.5,0.0,30.57,NE,38,1.0,2.0,0,0.00,,OVC007,0.00,VWS V13.01,2013-02-14 17:13:00,
2013-02-14 09:18:00,40.7,0.0,30.57,NE,37,1.0,2.0,0,0.00,,OVC007,0.00,VWS V13.01,2013-02-14 17:18:00,
2013-02-14 09:23:00,40.9,0.0,30.57,NE,49,1.0,3.0,0,0.00,,OVC007,0.00,VWS V13.01,2013-02-14 17:23:00,
2013-02-14 09:28:00,41.0,0.0,30.57,NE,52,0.0,3.0,0,0.00,,OVC007,0.00,VWS V13.01,2013-02-14 17:28:00,
2013-02-14 09:34:00,41.3,0.0,30.57,NE,52,0.0,0.0,0,0.00,,OVC007,0.00,VWS V13.01,2013-02-14 17:34:00,
2013-02-14 09:39:00,41.4,0.0,30.57,NE,52,0.0,0.0,0,0.00,,OVC007,0.00,VWS V13.01,2013-02-14 17:39:00,
2013-02-14 09:44:00,41.6,0.0,30.56,NE,52,0.0,0.0,0,0.00,,BKN007,0.00,VWS V13.01,2013-02-14 17:44:00,
2013-02-14 09:49:00,41.9,0.0,30.56,NE,52,0.0,0.0,0,0.00,,BKN007,0.00,VWS V13.01,2013-02-14 17:49:00,
2013-02-14 09:54:00,42.1,0.0,30.56,NE,52,0.0,0.0,0,0.00,,BKN007,0.00,VWS V13.01,2013-02-14 17:54:00,
2013-02-14 09:59:00,42.4,0.0,30.56,NE,52,0.0,1.0,0,0.00,,BKN007,0.00,VWS V13.01,2013-02-14 17:59:00,
2013-02-14 10:04:00,42.7,0.0,30.56,NE,38,2.0,3.0,0,0.00,,BKN007,0.00,VWS V13.01,2013-02-14 18:04:00,
2013-02-14 10:09:00,42.9,0.0,30.56,NE,38,0.0,3.0,0,0.00,,BKN007,0.00,VWS V13.01,2013-02-14 18:09:00,
2013-02-14 10:14:00,43.1,0.0,30.56,NE,38,0.0,0.0,0,0.00,,BKN007,0.00,VWS V13.01,2013-02-14 18:14:00,
2013-02-14 10:19:00,43.7,0.0,30.56,NE,38,0.0,0.0,0,0.00,,BKN007,0.00,VWS V13.01,2013-02-14 18:19:00,
2013-02-14 10:24:00,44.5,0.0,30.56,NE,38,0.0,0.0,0,0.00,,BKN007,0.00,VWS V13.01,2013-02-14 18:24:00,
2013-02-14 10:29:00,45.1,0.0,30.56,NE,38,0.0,0.0,0,0.00,,BKN007,0.00,VWS V13.01,2013-02-14 18:29:00,
2013-02-14 10:35:00,45.3,0.0,30.56,NE,38,0.0,0.0,0,0.00,,,0.00,VWS V13.01,2013-02-14 18:35:00,
2013-02-14 10:40:00,45.5,0.0,30.56,NE,38,0.0,0.0,0,0.00,,,0.00,VWS V13.01,2013-02-14 18:40:00,
2013-02-14 10:45:00,45.7,0.0,30.56,NE,38,0.0,0.0,0,0.00,,,0.00,VWS V13.01,2013-02-14 18:45:00,
2013-02-14 10:50:00,46.4,0.0,30.56,NE,38,0.0,0.0,0,0.00,,,0.00,VWS V13.01,2013-02-14 18:50:00,
2013-02-14 10:55:00,46.8,0.0,30.56,NE,38,0.0,0.0,0,0.00,,,0.00,VWS V13.01,2013-02-14 18:55:00,
2013-02-14 11:00:00,47.2,0.0,30.55,NE,38,0.0,0.0,0,0.00,,,0.00,VWS V13.01,2013-02-14 19:00:00,
2013-02-14 11:05:00,47.5,0.0,30.56,NE,38,0.0,0.0,0,0.00,,,0.00,VWS V13.01,2013-02-14 19:05:00,
2013-02-14 11:10:00,47.9,0.0,30.56,NE,38,0.0,0.0,0,0.00,,,0.00,VWS V13.01,2013-02-14 19:10:00,
2013-02-14 11:15:00,48.2,0.0,30.56,NE,38,0.0,0.0,0,0.00,,,0.00,VWS V13.01,2013-02-14 19:15:00,
2013-02-14 11:20:00,48.7,0.0,30.56,NE,38,0.0,0.0,0,0.00,,,0.00,VWS V13.01,2013-02-14 19:20:00,
2013-02-14 11:25:00,49.0,0.0,30.55,NE,38,0.0,0.0,0,0.00,,,0.00,VWS V13.01,2013-02-14 19:25:00,
2013-02-14 11:31:00,49.5,0.0,30.55,South,176,0.0,0.0,0,0.00,,,0.00,VWS V13.01,2013-02-14 19:31:00,
2013-02-14 11:36:00,50.1,0.0,30.55,SSE,166,0.0,0.0,0,0.00,,,0.00,VWS V13.01,2013-02-14 19:36:00,
2013-02-14 11:41:00,50.4,0.0,30.55,SE,130,0.0,0.0,0,0.00,,BKN200,0.00,VWS V13.01,2013-02-14 19:41:00,
2013-02-14 11:46:00,50.6,0.0,30.55,SE,130,0.0,0.0,0,0.00,,BKN200,0.00,VWS V13.01,2013-02-14 19:46:00,
2013-02-14 11:51:00,50.9,0.0,30.55,SE,130,0.0,0.0,0,0.00,,BKN200,0.00,VWS V13.01,2013-02-14 19:51:00,
2013-02-14 11:56:00,51.1,0.0,30.55,SE,130,0.0,0.0,0,0.00,,BKN200,0.00,VWS V13.01,2013-02-14 19:56:00,
2013-02-14 12:01:00,51.6,0.0,30.55,ENE,72,0.0,0.0,0,0.00,,BKN200,0.00,VWS V13.01,2013-02-14 20:01:00,
2013-02-14 12:06:00,52.2,0.0,30.55,ENE,72,0.0,0.0,0,0.00,,BKN200,0.00,VWS V13.01,2013-02-14 20:06:00,
2013-02-14 12:11:00,52.5,13.7,30.54,ENE,72,0.0,0.0,21,0.00,,BKN200,0.00,VWS V13.01,2013-02-14 20:11:00,
2013-02-14 12:16:00,53.5,7.0,30.54,ENE,74,0.0,0.0,15,0.00,,BKN200,0.00,VWS V13.01,2013-02-14 20:16:00,
2013-02-14 12:21:00,54.2,0.0,30.54,ENE,74,0.0,0.0,0,0.00,,BKN200,0.00,VWS V13.01,2013-02-14 20:21:00,
2013-02-14 12:27:00,54.4,24.4,30.53,East,100,0.0,0.0,31,0.00,,BKN200,0.00,VWS V13.01,2013-02-14 20:27:00,
2013-02-14 12:32:00,54.7,18.6,30.53,NE,47,0.0,2.0,24,0.00,,BKN200,0.00,VWS V13.01,2013-02-14 20:32:00,
2013-02-14 12:37:00,54.8,32.8,30.53,NE,53,0.0,2.0,43,0.00,,BKN200,0.00,VWS V13.01,2013-02-14 20:37:00,
2013-02-14 12:42:00,55.3,30.8,30.53,NE,51,0.0,2.0,39,0.00,,BKN200,0.00,VWS V13.01,2013-02-14 20:42:00,
2013-02-14 12:47:00,55.7,31.1,30.52,NE,48,0.0,0.0,39,0.00,,BKN200,0.00,VWS V13.01,2013-02-14 20:47:00,
2013-02-14 12:52:00,55.9,36.0,30.52,ENE,65,0.0,1.0,47,0.00,,BKN200,0.00,VWS V13.01,2013-02-14 20:52:00,
2013-02-14 12:57:00,56.0,23.4,30.52,NE,50,0.0,1.0,28,0.00,,BKN200,0.00,VWS V13.01,2013-02-14 20:57:00,
2013-02-14 13:02:00,56.3,37.9,30.52,East,90,0.0,2.0,50,0.00,,BKN200,0.00,VWS V13.01,2013-02-14 21:02:00,
2013-02-14 13:07:00,56.3,29.0,30.52,ENE,61,0.0,5.0,35,0.00,,BKN200,0.00,VWS V13.01,2013-02-14 21:07:00,
2013-02-14 13:12:00,56.4,34.8,30.52,ENE,74,0.0,5.0,44,0.00,,BKN200,0.00,VWS V13.01,2013-02-14 21:12:00,
2013-02-14 13:18:00,57.0,37.5,30.52,NE,34,4.0,6.0,48,0.00,,BKN200,0.00,VWS V13.01,2013-02-14 21:18:00,
2013-02-14 13:23:00,57.1,38.7,30.52,ENE,57,2.0,9.0,50,0.00,,BKN200,0.00,VWS V13.01,2013-02-14 21:23:00,
2013-02-14 13:28:00,56.6,38.2,30.52,ENE,75,3.0,9.0,50,0.00,,BKN200,0.00,VWS V13.01,2013-02-14 21:28:00,
2013-02-14 13:33:00,56.3,26.8,30.51,SSW,208,0.0,0.0,32,0.00,,SCT050,0.00,VWS V13.01,2013-02-14 21:33:00,
2013-02-14 13:38:00,56.1,19.8,30.51,SSW,211,0.0,0.0,24,0.00,,SCT050,0.00,VWS V13.01,2013-02-14 21:38:00,
2013-02-14 13:43:00,56.3,30.4,30.51,NE,56,4.0,9.0,37,0.00,,SCT050,0.00,VWS V13.01,2013-02-14 21:43:00,
2013-02-14 13:48:00,56.8,38.4,30.51,ENE,67,0.0,4.0,50,0.00,,SCT050,0.00,VWS V13.01,2013-02-14 21:48:00,
2013-02-14 13:53:00,57.1,38.7,30.51,ENE,61,0.0,6.0,50,0.00,,SCT050,0.00,VWS V13.01,2013-02-14 21:53:00,
2013-02-14 13:58:00,57.4,39.9,30.50,NE,55,0.0,6.0,52,0.00,,SCT050,0.00,VWS V13.01,2013-02-14 21:58:00,
2013-02-14 14:03:00,57.6,35.3,30.50,NNE,30,0.0,4.0,43,0.00,,SCT050,0.00,VWS V13.01,2013-02-14 22:03:00,
2013-02-14 14:08:00,57.8,35.5,30.50,SSE,157,0.0,4.0,43,0.00,,SCT050,0.00,VWS V13.01,2013-02-14 22:08:00,
2013-02-14 14:14:00,57.9,29.7,30.50,WSW,247,0.0,4.0,34,0.00,,SCT050,0.00,VWS V13.01,2013-02-14 22:14:00,
2013-02-14 14:19:00,58.1,35.7,30.50,WSW,247,0.0,0.0,43,0.00,,SCT050,0.00,VWS V13.01,2013-02-14 22:19:00,
2013-02-14 14:24:00,58.3,37.6,30.50,SSW,201,0.0,4.0,46,0.00,,SCT050,0.00,VWS V13.01,2013-02-14 22:24:00,
2013-02-14 14:29:00,58.2,24.4,30.50,West,272,0.0,4.0,27,0.00,,SCT050,0.00,VWS V13.01,2013-02-14 22:29:00,
2013-02-14 14:34:00,58.2,34.0,30.49,West,272,0.0,0.0,40,0.00,,SCT200,0.00,VWS V13.01,2013-02-14 22:34:00,
2013-02-14 14:39:00,58.1,28.4,30.49,West,265,0.0,0.0,32,0.00,,SCT200,0.00,VWS V13.01,2013-02-14 22:39:00,
2013-02-14 14:44:00,58.0,20.4,30.49,West,265,0.0,0.0,23,0.00,,SCT200,0.00,VWS V13.01,2013-02-14 22:44:00,
2013-02-14 14:49:00,57.7,24.8,30.49,SW,230,0.0,0.0,28,0.00,,SCT200,0.00,VWS V13.01,2013-02-14 22:49:00,
2013-02-14 14:54:00,57.6,21.1,30.49,SW,230,0.0,0.0,24,0.00,,SCT200,0.00,VWS V13.01,2013-02-14 22:54:00,
2013-02-14 14:59:00,57.3,18.8,30.49,SW,230,0.0,0.0,22,0.00,,SCT200,0.00,VWS V13.01,2013-02-14 22:59:00,
2013-02-14 15:05:00,56.9,16.3,30.49,SW,230,0.0,0.0,20,0.00,,SCT200,0.00,VWS V13.01,2013-02-14 23:05:00,
2013-02-14 15:10:00,56.6,8.0,30.48,SW,230,0.0,0.0,14,0.00,,SCT200,0.00,VWS V13.01,2013-02-14 23:10:00,
2013-02-14 15:15:00,56.5,4.5,30.48,SW,230,0.0,0.0,12,0.00,,SCT200,0.00,VWS V13.01,2013-02-14 23:15:00,
2013-02-14 15:20:00,56.4,-23.6,30.48,SW,230,0.0,0.0,3,0.00,,SCT200,0.00,VWS V13.01,2013-02-14 23:20:00,
2013-02-14 15:25:00,56.3,-23.7,30.48,SW,230,0.0,0.0,3,0.00,,SCT200,0.00,VWS V13.01,2013-02-14 23:25:00,
2013-02-14 15:30:00,56.2,-18.2,30.48,SW,230,0.0,0.0,4,0.00,,SCT200,0.00,VWS V13.01,2013-02-14 23:30:00,
2013-02-14 15:35:00,56.2,-31.2,30.48,SW,230,0.0,0.0,2,0.00,,SCT200,0.00,VWS V13.01,2013-02-14 23:35:00,
2013-02-14 15:40:00,55.7,-10.6,30.48,SW,230,0.0,0.0,6,0.00,,SCT200,0.00,VWS V13.01,2013-02-14 23:40:00,
2013-02-14 15:45:00,55.0,0.0,30.48,SW,230,0.0,0.0,0,0.00,,SCT200,0.00,VWS V13.01,2013-02-14 23:45:00,
2013-02-14 15:50:00,54.4,0.0,30.48,SW,230,0.0,0.0,0,0.00,,SCT200,0.00,VWS V13.01,2013-02-14 23:50:00,
2013-02-14 15:55:00,53.8,0.0,30.48,SW,230,0.0,0.0,0,0.00,,SCT200,0.00,VWS V13.01,2013-02-14 23:55:00,
2013-02-14 16:01:00,53.2,0.0,30.48,SW,230,0.0,0.0,0,0.00,,SCT200,0.00,VWS V13.01,2013-02-15 00:01:00,
2013-02-14 16:06:00,52.6,0.0,30.48,SW,230,0.0,0.0,0,0.00,,SCT200,0.00,VWS V13.01,2013-02-15 00:06:00,
2013-02-14 16:11:00,52.3,0.0,30.48,SW,230,0.0,0.0,0,0.00,,SCT200,0.00,VWS V13.01,2013-02-15 00:11:00,
2013-02-14 16:16:00,52.0,0.0,30.48,SW,230,0.0,0.0,0,0.00,,SCT200,0.00,VWS V13.01,2013-02-15 00:16:00,
2013-02-14 16:21:00,51.7,0.0,30.48,SW,230,0.0,0.0,0,0.00,,SCT200,0.00,VWS V13.01,2013-02-15 00:21:00,
2013-02-14 16:26:00,51.6,0.0,30.48,SW,230,0.0,0.0,0,0.00,,SCT200,0.00,VWS V13.01,2013-02-15 00:26:00,
2013-02-14 16:31:00,51.5,0.0,30.48,SW,230,0.0,0.0,0,0.00,,SCT200,0.00,VWS V13.01,2013-02-15 00:31:00,
2013-02-14 16:36:00,51.4,0.0,30.47,SW,230,0.0,0.0,0,0.00,,SCT200,0.00,VWS V13.01,2013-02-15 00:36:00,
2013-02-14 16:41:00,51.3,0.0,30.47,SW,230,0.0,0.0,0,0.00,,SCT200,0.00,VWS V13.01,2013-02-15 00:41:00,
2013-02-14 16:46:00,51.2,0.0,30.47,SW,230,0.0,0.0,0,0.00,,SCT200,0.00,VWS V13.01,2013-02-15 00:46:00,
2013-02-14 16:51:00,51.1,0.0,30.47,SW,230,0.0,0.0,0,0.00,,SCT200,0.00,VWS V13.01,2013-02-15 00:51:00,
2013-02-14 16:56:00,50.9,0.0,30.48,SW,230,0.0,0.0,0,0.00,,SCT200,0.00,VWS V13.01,2013-02-15 00:56:00,
2013-02-14 17:01:00,50.8,0.0,30.48,SW,230,0.0,0.0,0,0.00,,SCT200,0.00,VWS V13.01,2013-02-15 01:01:00,
2013-02-14 17:07:00,50.6,0.0,30.48,SW,230,0.0,0.0,0,0.00,,SCT200,0.00,VWS V13.01,2013-02-15 01:07:00,
2013-02-14 17:12:00,50.5,0.0,30.48,SW,230,0.0,0.0,0,0.00,,SCT200,0.00,VWS V13.01,2013-02-15 01:12:00,
2013-02-14 17:17:00,50.3,0.0,30.48,SW,230,0.0,0.0,0,0.00,,SCT200,0.00,VWS V13.01,2013-02-15 01:17:00,
2013-02-14 17:22:00,50.1,0.0,30.48,SW,230,0.0,0.0,0,0.00,,SCT200,0.00,VWS V13.01,2013-02-15 01:22:00,
2013-02-14 17:27:00,49.9,0.0,30.48,SW,230,0.0,0.0,0,0.00,,SCT200,0.00,VWS V13.01,2013-02-15 01:27:00,
2013-02-14 17:32:00,49.7,0.0,30.48,SW,230,0.0,0.0,0,0.00,,SCT200,0.00,VWS V13.01,2013-02-15 01:32:00,
2013-02-14 17:37:00,49.4,0.0,30.48,SW,230,0.0,0.0,0,0.00,,SCT200,0.00,VWS V13.01,2013-02-15 01:37:00,
2013-02-14 17:42:00,49.2,0.0,30.48,SW,230,0.0,0.0,0,0.00,,SCT200,0.00,VWS V13.01,2013-02-15 01:42:00,
2013-02-14 17:47:00,48.9,0.0,30.48,SW,230,0.0,0.0,0,0.00,,SCT200,0.00,VWS V13.01,2013-02-15 01:47:00,
2013-02-14 17:52:00,48.7,0.0,30.48,SW,230,0.0,0.0,0,0.00,,SCT200,0.00,VWS V13.01,2013-02-15 01:52:00,
2013-02-14 17:57:00,48.5,0.0,30.48,SW,230,0.0,0.0,0,0.00,,SCT200,0.00,VWS V13.01,2013-02-15 01:57:00,
2013-02-14 18:02:00,48.2,0.0,30.48,SW,230,0.0,0.0,0,0.00,,SCT200,0.00,VWS V13.01,2013-02-15 02:02:00,
2013-02-14 18:08:00,48.0,0.0,30.48,SW,230,0.0,0.0,0,0.00,,SCT200,0.00,VWS V13.01,2013-02-15 02:08:00,
2013-02-14 18:13:00,47.7,0.0,30.48,SW,230,0.0,0.0,0,0.00,,SCT200,0.00,VWS V13.01,2013-02-15 02:13:00,
2013-02-14 18:18:00,47.5,0.0,30.48,SW,230,0.0,0.0,0,0.00,,SCT200,0.00,VWS V13.01,2013-02-15 02:18:00,
2013-02-14 18:23:00,47.2,0.0,30.48,SW,230,0.0,0.0,0,0.00,,SCT200,0.00,VWS V13.01,2013-02-15 02:23:00,
2013-02-14 18:28:00,46.9,0.0,30.48,SW,230,0.0,0.0,0,0.00,,SCT200,0.00,VWS V13.01,2013-02-15 02:28:00,
2013-02-14 18:33:00,46.7,0.0,30.48,SW,230,0.0,0.0,0,0.00,,SCT200,0.00,VWS V13.01,2013-02-15 02:33:00,
2013-02-14 18:38:00,46.5,0.0,30.48,SW,230,0.0,0.0,0,0.00,,SCT200,0.00,VWS V13.01,2013-02-15 02:38:00,
2013-02-14 18:43:00,46.5,0.0,30.48,North,350,0.0,2.0,0,0.00,,SCT200,0.00,VWS V13.01,2013-02-15 02:43:00,
2013-02-14 18:48:00,46.5,0.0,30.48,North,350,0.0,0.0,0,0.00,,SCT200,0.00,VWS V13.01,2013-02-15 02:48:00,
2013-02-14 18:53:00,46.3,0.0,30.48,North,350,0.0,0.0,0,0.00,,SCT200,0.00,VWS V13.01,2013-02-15 02:53:00,
2013-02-14 18:59:00,46.0,0.0,30.48,North,350,0.0,0.0,0,0.00,,SCT200,0.00,VWS V13.01,2013-02-15 02:59:00,
2013-02-14 19:04:00,45.9,0.0,30.48,North,350,0.0,0.0,0,0.00,,SCT200,0.00,VWS V13.01,2013-02-15 03:04:00,
2013-02-14 19:09:00,45.6,0.0,30.49,North,350,0.0,0.0,0,0.00,,SCT200,0.00,VWS V13.01,2013-02-15 03:09:00,
2013-02-14 19:14:00,45.4,0.0,30.48,North,350,0.0,0.0,0,0.00,,SCT200,0.00,VWS V13.01,2013-02-15 03:14:00,
2013-02-14 19:19:00,45.4,0.0,30.49,North,350,0.0,0.0,0,0.00,,SCT200,0.00,VWS V13.01,2013-02-15 03:19:00,
2013-02-14 19:24:00,45.2,0.0,30.49,North,350,0.0,0.0,0,0.00,,SCT200,0.00,VWS V13.01,2013-02-15 03:24:00,
2013-02-14 19:29:00,45.0,0.0,30.49,North,350,0.0,0.0,0,0.00,,SCT200,0.00,VWS V13.01,2013-02-15 03:29:00,
2013-02-14 19:34:00,44.9,0.0,30.49,North,350,0.0,0.0,0,0.00,,SCT200,0.00,VWS V13.01,2013-02-15 03:34:00,
2013-02-14 19:39:00,44.7,0.0,30.49,North,350,0.0,0.0,0,0.00,,SCT200,0.00,VWS V13.01,2013-02-15 03:39:00,
2013-02-14 19:44:00,44.6,0.0,30.48,North,350,0.0,0.0,0,0.00,,CLR,0.00,VWS V13.01,2013-02-15 03:44:00,
2013-02-14 19:49:00,44.5,0.0,30.48,North,350,0.0,0.0,0,0.00,,CLR,0.00,VWS V13.01,2013-02-15 03:49:00,
2013-02-14 19:54:00,44.4,0.0,30.48,North,350,0.0,0.0,0,0.00,,CLR,0.00,VWS V13.01,2013-02-15 03:54:00,
2013-02-14 19:59:00,44.4,0.0,30.49,North,350,0.0,0.0,0,0.00,,CLR,0.00,VWS V13.01,2013-02-15 03:59:00,
2013-02-14 20:04:00,44.4,0.0,30.49,North,350,0.0,0.0,0,0.00,,CLR,0.00,VWS V13.01,2013-02-15 04:04:00,
2013-02-14 20:09:00,44.2,0.0,30.49,North,350,0.0,0.0,0,0.00,,CLR,0.00,VWS V13.01,2013-02-15 04:09:00,
2013-02-14 20:14:00,44.0,0.0,30.49,North,350,0.0,0.0,0,0.00,,CLR,0.00,VWS V13.01,2013-02-15 04:14:00,
2013-02-14 20:19:00,43.8,0.0,30.48,North,350,0.0,0.0,0,0.00,,CLR,0.00,VWS V13.01,2013-02-15 04:19:00,
2013-02-14 20:24:00,43.5,0.0,30.48,North,350,0.0,0.0,0,0.00,,CLR,0.00,VWS V13.01,2013-02-15 04:24:00,
2013-02-14 20:29:00,43.3,0.0,30.48,North,350,0.0,0.0,0,0.00,,CLR,0.00,VWS V13.01,2013-02-15 04:29:00,
2013-02-14 20:34:00,43.2,0.0,30.48,North,350,0.0,0.0,0,0.00,,CLR,0.00,VWS V13.01,2013-02-15 04:34:00,
2013-02-14 20:40:00,43.1,0.0,30.48,North,350,0.0,0.0,0,0.00,,CLR,0.00,VWS V13.01,2013-02-15 04:40:00,
2013-02-14 20:45:00,43.0,0.0,30.48,North,350,0.0,0.0,0,0.00,,CLR,0.00,VWS V13.01,2013-02-15 04:45:00,
2013-02-14 20:50:00,42.9,0.0,30.48,North,350,0.0,0.0,0,0.00,,CLR,0.00,VWS V13.01,2013-02-15 04:50:00,
2013-02-14 20:55:00,42.8,0.0,30.48,North,350,0.0,0.0,0,0.00,,CLR,0.00,VWS V13.01,2013-02-15 04:55:00,
2013-02-14 21:00:00,42.7,0.0,30.48,North,350,0.0,0.0,0,0.00,,CLR,0.00,VWS V13.01,2013-02-15 05:00:00,
2013-02-14 21:02:00,42.7,0.0,30.48,North,350,0.0,0.0,0,0.00,,CLR,0.00,VWS V13.01,2013-02-15 05:02:00,
2013-02-14 21:07:00,42.5,0.0,30.48,North,350,0.0,0.0,0,0.00,,CLR,0.00,VWS V13.01,2013-02-15 05:07:00,
2013-02-14 21:12:00,42.3,0.0,30.48,North,350,0.0,0.0,0,0.00,,CLR,0.00,VWS V13.01,2013-02-15 05:12:00,
2013-02-14 21:17:00,42.2,0.0,30.48,North,350,0.0,0.0,0,0.00,,CLR,0.00,VWS V13.01,2013-02-15 05:17:00,
2013-02-14 21:22:00,42.1,0.0,30.48,North,350,0.0,0.0,0,0.00,,CLR,0.00,VWS V13.01,2013-02-15 05:22:00,
2013-02-14 21:28:00,42.1,0.0,30.48,North,350,0.0,1.0,0,0.00,,CLR,0.00,VWS V13.01,2013-02-15 05:28:00,
2013-02-14 21:33:00,42.2,0.0,30.48,North,350,0.0,0.0,0,0.00,,CLR,0.00,VWS V13.01,2013-02-15 05:33:00,
2013-02-14 21:38:00,42.1,0.0,30.47,North,350,0.0,0.0,0,0.00,,CLR,0.00,VWS V13.01,2013-02-15 05:38:00,
2013-02-14 21:43:00,42.2,0.0,30.47,North,350,0.0,1.0,0,0.00,,CLR,0.00,VWS V13.01,2013-02-15 05:43:00,
2013-02-14 21:48:00,42.2,0.0,30.47,North,350,0.0,0.0,0,0.00,,CLR,0.00,VWS V13.01,2013-02-15 05:48:00,
2013-02-14 21:53:00,42.1,0.0,30.47,North,350,0.0,0.0,0,0.00,,CLR,0.00,VWS V13.01,2013-02-15 05:53:00,
2013-02-14 21:58:00,42.0,0.0,30.47,North,350,0.0,0.0,0,0.00,,CLR,0.00,VWS V13.01,2013-02-15 05:58:00,
2013-02-14 22:03:00,42.1,0.0,30.47,North,350,0.0,0.0,0,0.00,,CLR,0.00,VWS V13.01,2013-02-15 06:03:00,
2013-02-14 22:08:00,41.9,0.0,30.47,North,350,0.0,0.0,0,0.00,,CLR,0.00,VWS V13.01,2013-02-15 06:08:00,
2013-02-14 22:13:00,42.1,0.0,30.47,SW,236,0.0,2.0,0,0.00,,CLR,0.00,VWS V13.01,2013-02-15 06:13:00,
2013-02-14 22:18:00,42.2,0.0,30.47,SW,236,0.0,0.0,0,0.00,,CLR,0.00,VWS V13.01,2013-02-15 06:18:00,
2013-02-14 22:23:00,42.1,0.0,30.47,SW,236,0.0,0.0,0,0.00,,CLR,0.00,VWS V13.01,2013-02-15 06:23:00,
2013-02-14 22:29:00,41.9,0.0,30.47,SW,236,0.0,0.0,0,0.00,,CLR,0.00,VWS V13.01,2013-02-15 06:29:00,
2013-02-14 22:34:00,41.9,0.0,30.47,SW,236,0.0,0.0,0,0.00,,CLR,0.00,VWS V13.01,2013-02-15 06:34:00,
2013-02-14 22:39:00,42.0,0.0,30.47,SW,236,0.0,0.0,0,0.00,,CLR,0.00,VWS V13.01,2013-02-15 06:39:00,
2013-02-14 22:44:00,42.1,0.0,30.47,SW,236,0.0,0.0,0,0.00,,CLR,0.00,VWS V13.01,2013-02-15 06:44:00,
2013-02-14 22:49:00,42.1,0.0,30.47,SW,236,0.0,0.0,0,0.00,,CLR,0.00,VWS V13.01,2013-02-15 06:49:00,
2013-02-14 22:54:00,42.1,0.0,30.47,SW,236,0.0,0.0,0,0.00,,CLR,0.00,VWS V13.01,2013-02-15 06:54:00,
2013-02-14 22:59:00,42.1,0.0,30.47,SW,236,0.0,0.0,0,0.00,,CLR,0.00,VWS V13.01,2013-02-15 06:59:00,
2013-02-14 23:04:00,42.1,0.0,30.47,SW,236,0.0,0.0,0,0.00,,CLR,0.00,VWS V13.01,2013-02-15 07:04:00,
2013-02-14 23:09:00,42.1,0.0,30.47,SW,236,0.0,0.0,0,0.00,,CLR,0.00,VWS V13.01,2013-02-15 07:09:00,
2013-02-14 23:14:00,42.1,0.0,30.47,SW,236,0.0,0.0,0,0.00,,CLR,0.00,VWS V13.01,2013-02-15 07:14:00,
2013-02-14 23:19:00,42.1,0.0,30.47,SW,236,0.0,0.0,0,0.00,,CLR,0.00,VWS V13.01,2013-02-15 07:19:00,
2013-02-14 23:25:00,42.2,0.0,30.47,SW,236,0.0,0.0,0,0.00,,CLR,0.00,VWS V13.01,2013-02-15 07:25:00,
2013-02-14 23:30:00,42.2,0.0,30.47,SW,236,0.0,0.0,0,0.00,,CLR,0.00,VWS V13.01,2013-02-15 07:30:00,
2013-02-14 23:35:00,42.2,0.0,30.47,SW,236,0.0,0.0,0,0.00,,CLR,0.00,VWS V13.01,2013-02-15 07:35:00,
2013-02-14 23:40:00,42.2,0.0,30.47,SW,236,0.0,0.0,0,0.00,,CLR,0.00,VWS V13.01,2013-02-15 07:40:00,
2013-02-14 23:45:00,42.2,0.0,30.47,SW,236,0.0,0.0,0,0.00,,CLR,0.00,VWS V13.01,2013-02-15 07:45:00,
2013-02-14 23:50:00,42.2,0.0,30.47,SW,236,0.0,0.0,0,0.00,,CLR,0.00,VWS V13.01,2013-02-15 07:50:00,
2013-02-14 23:55:00,42.2,0.0,30.47,SW,236,0.0,0.0,0,0.00,,CLR,0.00,VWS V13.01,2013-02-15 07:55:00,